1998-067RD

Last updated on Feb. 23, 2020, 12:02 a.m. UTC

1 45260U 98067RD  20051.69921362  .02246026  00000-0  34712-1 0  9993
2 45260  51.6436 209.7990 0009749 310.9616 152.5509 15.49926336   246

Satellite is not in orbit.